HISPASAT 30W-6 (43228 NORAD) Tracking and Keplerian Element Data

This shows tracking and keplerian element data for the satellite.

Feedback or suggestion? Click here.




ElementValue
Catalog43228
NameHISPASAT 30W-6
Epoch Orbit2298
Epoch Day157.6272464
Epoch Year2024
RAAN43.2258
Inclination0.049
Eccentricity0.0005475
Argument of Perigee18.9626
Mean Anonmoly28.1474
Mean Motion1.00270474
Decay Rate-2.13E-06
L11 43228U 18023A 24157.62724640 -.00000213 00000+0 00000+0 0 9998
L22 43228 0.0490 43.2258 0005475 18.9626 28.1474 1.00270474 22983



Live tracking and technical data element details for HISPASAT 30W-6 (NORAD 43228). HISPASAT 30W-6 can be tracked NOW for your location showing map with azimuth and elevation plus other details from your city location.







IsCatalogInMostPopularTable: catalog: 43228, numindb: 1041
Update: records affected: 1



GetName: 43228 HISPASAT 30W-6

Hit Count: updated at: Tue, 17 Sep 2024 12:42:33 GMT